Cedar Ridge, CA

3:48 PM PST on February 05, 2016 (GMT -0800)
Grass Valley

Weather History for KGOO - October, 2012

Change the Weather History Date:

Saturday, October 13, 2012

  Actual Average (KBLU) Record (KBLU)
Temperature  
Mean Temperature 55 °F -  
Max Temperature 64 °F 61 °F 82 °F (1978)
Min Temperature 46 °F 44 °F 29 °F (1981)
Degree Days  
Heating Degree Days 10    
Growing Degree Days 5 (Base 50)    
Moisture  
Dew Point 45 °F    
Average Humidity 71    
Maximum Humidity 93    
Minimum Humidity 52    
Precipitation  
Precipitation 0.00 in - - ()
Sea Level Pressure  
Sea Level Pressure 30.28 in    
Wind  
Wind Speed 3 mph ()    
Max Wind Speed 9 mph    
Max Gust Speed -    
Visibility 10.0 miles    
Events      
Averages and records for this station are not official NWS values.
T = Trace of Precipitation, MM = Missing Value Source: Averaged Metar Reports

Daily Weather History Graph

Daily Weather History Graph

Search for Another Location

Airport or City:

Trip Planner

Search our weather history database for the weather conditions in past years. The results will help you decide how hot, cold, wet, or windy it might be!

Date:

Astronomy

Oct. 13, 2012 Rise Set
Actual Time 7:12 AM PDT 6:27 PM PDT
Civil Twilight 6:45 AM PDT 6:54 PM PDT
Nautical Twilight 6:14 AM PDT 7:25 PM PDT
Astronomical Twilight 5:43 AM PDT 7:56 PM PDT
Moon 5:08 AM PDT (10/13) 5:13 PM PDT (10/13)
Length of Visible Light 12h 08m
Length of Day
11h 14m
Waning Crescent, 4% of the Moon is Illuminated
Oct 13
Waning Crescent
Oct 15
New
Oct 21
First Quarter
Oct 29
Full
Nov 6
Last Quarter

Hourly Weather History & Observations

Time (PDT) Temp. Windchill Dew Point Humidity Pressure Visibility Wind Dir Wind Speed Gust Speed Precip Events Conditions
12:15 AM 48.2 °F - 46.4 °F 93% 30.26 in 10.0 mi Calm Calm - N/A   Scattered Clouds
12:35 AM 48.2 °F - 46.4 °F 93% 30.26 in 10.0 mi Calm Calm - N/A   Clear
12:55 AM 46.4 °F 45.2 °F 44.6 °F 93% 30.26 in 10.0 mi NNE 3.5 mph - N/A   Clear
1:15 AM 48.2 °F - 44.6 °F 87% 30.26 in 10.0 mi Calm Calm - N/A   Clear
1:35 AM 46.4 °F - 44.6 °F 93% 30.27 in 10.0 mi Calm Calm - N/A   Clear
1:55 AM 46.4 °F - 44.6 °F 93% 30.28 in 10.0 mi Calm Calm - N/A   Clear
3:35 AM 46.4 °F 45.2 °F 44.6 °F 93% 30.29 in 10.0 mi NNE 3.5 mph - N/A   Clear
3:55 AM 46.4 °F - 44.6 °F 93% 30.29 in 10.0 mi Calm Calm - N/A   Clear
4:15 AM 46.4 °F 45.2 °F 44.6 °F 93% 30.29 in 10.0 mi North 3.5 mph - N/A   Clear
4:35 AM 46.4 °F 45.2 °F 44.6 °F 93% 30.29 in 10.0 mi North 3.5 mph - N/A   Clear
4:55 AM 46.4 °F 44.3 °F 44.6 °F 93% 30.29 in 10.0 mi North 4.6 mph - N/A   Clear
5:15 AM 48.2 °F - 44.6 °F 87% 30.29 in 10.0 mi Calm Calm - N/A   Clear
5:55 AM 48.2 °F - 44.6 °F 87% 30.29 in 10.0 mi NNW 3.5 mph - N/A   Clear
6:15 AM 48.2 °F - 44.6 °F 87% 30.29 in 10.0 mi NNW 4.6 mph - N/A   Clear
6:35 AM 48.2 °F - 42.8 °F 82% 30.29 in 10.0 mi North 3.5 mph - N/A   Clear
6:55 AM 48.2 °F - 42.8 °F 82% 30.29 in 10.0 mi Calm Calm - N/A   Clear
7:15 AM 48.2 °F - 42.8 °F 82% 30.29 in 10.0 mi Calm Calm - N/A   Clear
7:55 AM 48.2 °F - 42.8 °F 82% 30.30 in 10.0 mi North 3.5 mph - N/A   Clear
8:15 AM 50.0 °F - 42.8 °F 76% 30.30 in 10.0 mi NW 3.5 mph - N/A   Clear
9:15 AM 51.8 °F - 42.8 °F 71% 30.31 in 10.0 mi NW 6.9 mph - N/A   Clear
9:35 AM 51.8 °F - 42.8 °F 71% 30.31 in 10.0 mi NW 6.9 mph - N/A   Clear
9:55 AM 53.6 °F - 42.8 °F 67% 30.32 in 10.0 mi NNW 5.8 mph - N/A   Clear
10:15 AM 53.6 °F - 42.8 °F 67% 30.32 in 10.0 mi NNW 9.2 mph - N/A   Clear
10:35 AM 55.4 °F - 42.8 °F 63% 30.32 in 10.0 mi NNW 6.9 mph - N/A   Clear
10:55 AM 57.2 °F - 41.0 °F 55% 30.31 in 10.0 mi NW 6.9 mph - N/A   Clear
11:15 AM 57.2 °F - 41.0 °F 55% 30.31 in 10.0 mi NW 4.6 mph - N/A   Clear
11:35 AM 59.0 °F - 42.8 °F 55% 30.31 in 10.0 mi NW 6.9 mph - N/A   Clear
11:55 AM 60.8 °F - 44.6 °F 55% 30.30 in 10.0 mi West 5.8 mph - N/A   Clear
12:15 PM 59.0 °F - 44.6 °F 59% 30.30 in 10.0 mi WNW 5.8 mph - N/A   Partly Cloudy
12:35 PM 60.8 °F - 44.6 °F 55% 30.30 in 10.0 mi WNW 9.2 mph - N/A   Partly Cloudy
1:15 PM 62.6 °F - 44.6 °F 52% 30.29 in 10.0 mi West 5.8 mph - N/A   Clear
1:35 PM 62.6 °F - 46.4 °F 55% 30.27 in 10.0 mi Calm Calm - N/A   Clear
1:55 PM 64.4 °F - 46.4 °F 52% 30.27 in 10.0 mi West 5.8 mph - N/A   Clear
2:15 PM 64.4 °F - 46.4 °F 52% 30.26 in 10.0 mi West 5.8 mph - N/A   Clear
2:55 PM 64.4 °F - 46.4 °F 52% 30.26 in 10.0 mi WSW 4.6 mph - N/A   Clear
3:35 PM 64.4 °F - 46.4 °F 52% 30.26 in 10.0 mi WNW 8.1 mph - N/A   Clear
3:55 PM 64.4 °F - 46.4 °F 52% 30.25 in 10.0 mi NNW 5.8 mph - N/A   Clear
4:35 PM 64.4 °F - 46.4 °F 52% 30.26 in 10.0 mi NW 6.9 mph - N/A   Clear
4:55 PM 64.4 °F - 46.4 °F 52% 30.26 in 10.0 mi NW 8.1 mph - N/A   Clear
5:15 PM 62.6 °F - 46.4 °F 55% 30.26 in 10.0 mi NW 6.9 mph - N/A   Clear
5:35 PM 62.6 °F - 46.4 °F 55% 30.26 in 10.0 mi NNW 3.5 mph - N/A   Clear
6:15 PM 62.6 °F - 46.4 °F 55% 30.25 in 10.0 mi Calm Calm - N/A   Clear
7:35 PM 59.0 °F - 46.4 °F 63% 30.26 in 10.0 mi NNW 3.5 mph - N/A   Clear
7:55 PM 57.2 °F - 46.4 °F 67% 30.26 in 10.0 mi Calm Calm - N/A   Clear
8:15 PM 57.2 °F - 46.4 °F 67% 30.27 in 10.0 mi Calm Calm - N/A   Clear
8:55 PM 59.0 °F - 46.4 °F 63% 30.26 in 10.0 mi Calm Calm - N/A   Clear
9:35 PM 55.4 °F - 46.4 °F 72% 30.25 in 10.0 mi Calm Calm - N/A   Clear
10:35 PM 57.2 °F - 46.4 °F 67% 30.25 in 10.0 mi West 5.8 mph - N/A   Clear
10:55 PM 57.2 °F - 46.4 °F 67% 30.25 in 10.0 mi WNW 5.8 mph - N/A   Clear
11:15 PM 55.4 °F - 46.4 °F 72% 30.25 in 10.0 mi NW 4.6 mph - N/A   Clear
11:35 PM 53.6 °F - 46.4 °F 77% 30.25 in 10.0 mi NNW 4.6 mph - N/A   Clear
11:55 PM 53.6 °F - 46.4 °F 77% 30.24 in 10.0 mi North 4.6 mph - N/A   Clear